Regional Weather Roundup
Issued by NWS

Home | Current Version | Previous Version | Graphics & Text | Print | Product List | Glossary On
Versions: 1 2 3 4 5 6 7 8 9 10 11 12 13 14 15 16 17 18 19 20 21 22 23 24 25 26 27 28 29 30 31 32 33 34 35 36 37 38 39 40 41 42 43 44 45 46 47 48 49 50
000
ASUS43 KLOT 020100
RWRIL

ILLINOIS REGIONAL WEATHER ROUNDUP
NATIONAL WEATHER SERVICE CHICAGO/ROMEOVILLE IL
800 PM CDT TUE SEP 01 2015

NOTE: "FAIR" INDICATES FEW OR NO CLOUDS BELOW 12,000 FEET WITH NO
SIGNIFICANT WEATHER AND/OR OBSTRUCTIONS TO VISIBILITY.

* THESE STATIONS ARE NOT UNDER NWS QUALITY CONTROL. THEY ALSO MAY NOT
  REPORT WEATHER SUCH AS PRECIPITATION OR FOG.

ILZ001-002-007-009-015-016-024-020200-
NORTHWEST ILLINOIS

CITY           SKY/WX    TMP DP  RH WIND       PRES   REMARKS
MOLINE         CLEAR     81  71  71 S6        29.98S HX  85
$$

ILZ003-004-008-010-011-017-018-020200-
NORTH CENTRAL ILLINOIS

CITY           SKY/WX    TMP DP  RH WIND       PRES   REMARKS
ROCKFORD       NOT AVBL
$$

ILZ005-006-012>014-019>023-020200-
NORTHEAST ILLINOIS

CITY           SKY/WX    TMP DP  RH WIND       PRES   REMARKS
CHICAGO-OHARE  PTCLDY    83  72  69 S8        30.00R HX  88
CHICAGO-MIDWAY PTCLDY    86  71  60 S8        30.01R HX  91
AURORA         CLEAR     80  73  79 S6        30.02R HX  84
WAUKEGAN       NOT AVBL
DUPAGE AIRPORT CLEAR     79  72  79 S6        30.01R HX  82
WHEELING       CLEAR     84  71  65 S7        30.01R HX  89
NORTHERLY ISL    N/A     84  69  60 S9          N/A  HX  88
$$

LMZ740>746-020200-
SOUTHERN LAKE MICHIGAN

STATION/POSITION SKY/WX   TEMP    WIND        PRES    VSBY  WAVE
                          AIR SEA DIR/SP/G                  HT/PER
                          (F)     (DEG/KT/KT) (MB)    (MI)  (FT/S)
SOUTHERN BUOY              74 70  180/ 12/ 12 1014.8F         1/ 3
WILMETTE HARBOR            74 60   20/  6/  8   N/A           1/ 2
HARRISON CRIB              83     190/ 13/ 16   N/A
BURNHAM HARBOR             85     190/  9/ 12   N/A
CALUMET HARBOR             84     200/  6/ 10   N/A
BURNS HARBOR               83     180/  8/ 12 1016.9R
MICHIGAN CITY              82     170/  8/  9   N/A
MICHIGAN CITY 6N           77 73  200/  6/  6   N/A           1
ST. JOSEPH                 75 73  220/  4/  4   N/A           1/ 3
$$

ILZ025>027-034>036-040-047-049-050-058-095>099-020200-
WEST-CENTRAL ILLINOIS

CITY           SKY/WX    TMP DP  RH WIND       PRES   REMARKS
$$

ILZ028>032-037-038-041>044-048-051>054-059>061-020200-
CENTRAL ILLINOIS

CITY           SKY/WX    TMP DP  RH WIND       PRES   REMARKS
PEORIA         NOT AVBL
SPRINGFIELD    CLEAR     82  69  64 SW6       30.04R HX  85
TAYLORVILLE    NOT AVBL
$$

ILZ033-039-045-046-055>057-062-063-020200-
EAST-CENTRAL ILLINOIS

CITY           SKY/WX    TMP DP  RH WIND       PRES   REMARKS
CHAMPAIGN      CLOUDY    75  70  84 SE3       30.09R THUNDER
MATTOON        PTCLDY    78  67  68 S5        30.07R HX  80
$$

ILZ079-100>102-020200-
SOUTHWEST ILLINOIS

CITY           SKY/WX    TMP DP  RH WIND       PRES   REMARKS
CAHOKIA*       CLEAR     81  71  71 S5        30.04S HX  85
$$

ILZ064>066-069>071-074>076-080>082-084>086-088>090-092>094-020200-
SOUTH-CENTRAL ILLINOIS

CITY           SKY/WX    TMP DP  RH WIND       PRES   REMARKS
CARBONDALE     CLEAR     76  72  87 SE3       30.08R
$$

ILZ067-068-072-073-078-083-087-091-020200-
SOUTHEAST ILLINOIS

CITY           SKY/WX    TMP DP  RH WIND       PRES   REMARKS
LAWRENCEVILLE  PTCLDY    77  70  79 CALM      30.08R
$$

ABBREVIATIONS USED IN REMARKS
   TC - TEMPERATURE IN CELSIUS
  WCI - WIND CHILL INDEX
   HX - HEAT INDEX
  VSB - VISIBILITY
$$



USA.gov is the U.S. government's official web portal to all federal, state and local government web resources and services.